Orbital Elements at Epoch 2459200.5 (2020-Dec-17.0) TDB
Reference: JPL 26 (heliocentric ecliptic J2000)
Element | Value | Uncertainty (1-sigma) | Units |
e | .2660728738805375 | 2.7334e-08 | |
a | 2.352056422137053 | 6.4286e-09 | au |
q | 1.726238010369872 | 6.2738e-08 | au |
i | 7.997641204350905 | 3.6265e-06 | deg |
node | 177.4872673583429 | 1.8976e-05 | deg |
peri | 64.10095108090395 | 2.0715e-05 | deg |
M | 86.27008085469141 | 6.4494e-06 | deg |
tp | 2458884.761359594966 (2020-Feb-05.26135960) | 2.3325e-05 | TDB |
period | 1317.55887347857 3.61 | 5.4017e-06 1.479e-08 | d yr |
n | .2732325721806582 | 1.1202e-09 | deg/d |
Q | 2.977874833904234 | 8.1391e-09 | au |
|
| | Orbit Determination Parameters
Additional Information
|